Sisters Island, British Columbia

3:39 AM PDT on October 22, 2017 (GMT -0700)
Sisters Island

Weather History for CWGT - September, 2013

Change the Weather History Date:

Sunday, September 22, 2013

  Actual Average Record
Temperature  
Mean Temperature 56 °F -  
Max Temperature 59 °F - - ()
Min Temperature 54 °F - - ()
Degree Days  
Heating Degree Days 8    
Growing Degree Days 6 (Base 50)    
Moisture  
Dew Point 51 °F    
Average Humidity 78    
Maximum Humidity 91    
Minimum Humidity 55    
Precipitation  
Precipitation 0.00 in - - ()
Sea Level Pressure  
Sea Level Pressure 29.49 in    
Wind  
Wind Speed 18 mph ()    
Max Wind Speed 43 mph    
Max Gust Speed 52 mph    
T = Trace of Precipitation, MM = Missing Value Source: Averaged Metar Reports

Daily Weather History Graph

Daily Weather History Graph

Search for Another Location

Airport or City:

Trip Planner

Search our weather history database for the weather conditions in past years. The results will help you decide how hot, cold, wet, or windy it might be!

Date:

Astronomy

Sep. 22, 2013 Rise Set
Actual Time 7:04 AM PDT 7:14 PM PDT
Civil Twilight 6:32 AM PDT 7:46 PM PDT
Nautical Twilight 5:55 AM PDT 8:24 PM PDT
Astronomical Twilight 5:16 AM PDT 9:03 PM PDT
Moon 8:45 PM PDT 10:52 AM PDT
Length of Visible Light 13h 13m
Length of Day
12h 10m
Waning Gibbous, 88% of the Moon is Illuminated
Sep 22
Waning Gibbous
Sep 26
Last Quarter
Oct 4
New
Oct 11
First Quarter
Oct 18
Full

Hourly Weather History & Observations

Time (PDT) Temp. Dew Point Humidity Pressure Visibility Wind Dir Wind Speed Gust Speed Precip Events Conditions
12:00 AM 59.0 °F 50.2 °F 73% 29.62 in - SE 9.2 mph - N/A   Unknown
1:00 AM 58.1 °F 48.9 °F 71% 29.60 in - SE 11.5 mph - N/A   Unknown
2:00 AM 58.5 °F 50.9 °F 76% 29.59 in - East 9.2 mph - N/A   Unknown
3:00 AM 57.7 °F 50.5 °F 77% 29.56 in - ESE 20.7 mph - N/A   Unknown
4:00 AM 58.5 °F 50.7 °F 75% 29.54 in - ESE 21.9 mph - N/A   Unknown
5:00 AM 56 °F 52 °F 81%  in - ESE 21.9 mph - -  
5:00 AM 56.5 °F 51.8 °F 84% 29.53 in - ESE 21.9 mph - N/A   Unknown
6:00 AM 56.7 °F 51.4 °F 83% 29.52 in - ESE 21.9 mph - N/A   Unknown
7:00 AM 56.3 °F 52.3 °F 87% 29.49 in - East 19.6 mph - N/A   Unknown
8:00 AM 56.7 °F 51.6 °F 83% 29.46 in - ESE 31.1 mph - N/A   Unknown
9:00 AM 56.8 °F 51.4 °F 82% 29.40 in - ESE 38.0 mph 46.0 mph N/A   Unknown
10:00 AM 56.7 °F 51.8 °F 84% 29.38 in - ESE 42.6 mph 51.8 mph N/A   Unknown
11:00 AM 55 °F 53 °F 89% 29.35 in - ESE 41.4 mph - -  
11:00 AM 55.2 °F 52.7 °F 91% 29.35 in - ESE 41.4 mph 47.2 mph N/A   Unknown
12:00 PM 54.9 °F 51.4 °F 88% 29.37 in - ESE 42.6 mph - N/A   Unknown
1:00 PM 55.4 °F 51.8 °F 88% 29.39 in - ESE 34.5 mph - N/A   Unknown
2:00 PM 55.6 °F 51.6 °F 87% 29.42 in - ESE 31.1 mph - N/A   Unknown
3:00 PM 55.8 °F 51.6 °F 86% 29.44 in - ESE 29.9 mph - N/A   Unknown
4:00 PM 56.7 °F 51.8 °F 84% 29.45 in - ESE 23.0 mph 29.9 mph N/A   Unknown
5:00 PM 58 °F 53 °F 76% 29.48 in - ESE 18.4 mph - -  
5:00 PM 57.6 °F 52.5 °F 83% 29.48 in - ESE 18.4 mph - N/A   Unknown
6:00 PM 58.3 °F 50.5 °F 75% 29.49 in - ESE 10.4 mph - N/A   Unknown
7:00 PM 59.2 °F 51.3 °F 75% 29.52 in - SE 9.2 mph - N/A   Unknown
8:00 PM 59.4 °F 47.8 °F 66% 29.53 in - SW 4.6 mph - N/A   Unknown
9:00 PM 59.4 °F 46.0 °F 61% 29.56 in - SW 5.8 mph - N/A   Unknown
10:00 PM 58.8 °F 46.2 °F 63% 29.57 in - SSW 6.9 mph - N/A   Unknown
11:00 PM 59 °F 47 °F 55% 29.58 in - SSW 8.1 mph - -  
11:00 PM 58.6 °F 46.9 °F 65% 29.58 in - SSW 8.1 mph - N/A   Unknown